Stations météo

réclame
Mon MeteoGroup
Montpellier, France (7643): Température de l'air & dewpoint: 12.01.2019 12:00:00 - 18.01.2019 12:00:00 (CET)Montpellier, France (7643): Température de l'air 5cm: 12.01.2019 12:00:00 - 18.01.2019 12:00:00 (CET)Montpellier, France (7643): Température de l'air -20cm & Température de l'air -100cm: 12.01.2019 12:00:00 - 18.01.2019 12:00:00 (CET)Montpellier, France (7643): Vitesse du vent & gusts: 12.01.2019 12:00:00 - 18.01.2019 12:00:00 (CET)Montpellier, France (7643): Direction du vent: 12.01.2019 12:00:00 - 18.01.2019 12:00:00 (CET)Montpellier, France (7643): reduced air pressure: 12.01.2019 12:00:00 - 18.01.2019 12:00:00 (CET)Montpellier, France (7643): visibility: 12.01.2019 12:00:00 - 18.01.2019 12:00:00 (CET)Montpellier, France (7643): Ensoleillement: 12.01.2019 12:00:00 - 18.01.2019 12:00:00 (CET)Montpellier, France (7643): Quantités de précipitations: 12.01.2019 12:00:00 - 18.01.2019 12:00:00 (CET)
Date & Time tt [°C] td [°C] tt 5cm [°C] tt -20cm [°C] tt -100cm [°C] ff [km/h] ff [knt] fx [km/h] fx [knt] dd ppp [hPa] vv [km] sd [min] rr [mm]
18.01.2019 12:00:00 10,1 0,1 11,9 6,9 10,7 9 5 27 15 NNW 1017,2 60 38 0,0
18.01.2019 11:00:00 9,7 0,8 9,5 6,8 10,7 19 10 28 15 NW 1017,7 60 53 0,0
18.01.2019 10:00:00 7,5 0,7 5,8 6,9 10,7 21 11 30 16 W 1018,0 20 60 0,0
18.01.2019 09:00:00 5,2 -0,4 -0,2 6,9 10,7 23 12 30 16 W 1017,8 56 23 0,0
18.01.2019 08:00:00 3,8 -1,2 -2,0 7,0 10,7 8 5 18 10 W 1017,3 48 0 0,0
18.01.2019 07:00:00 5,0 -1,0 2,1 7,1 10,7 19 10 27 15 WNW 1017,4 60 0 0,0
18.01.2019 06:00:00 5,5 -1,0 1,6 7,2 10,7 20 11 32 17 WNW 1017,2 60 0 0,0
18.01.2019 05:00:00 5,0 -0,6 -0,2 7,3 10,7 16 9 21 11 W 1017,5 60 0 0,0
18.01.2019 04:00:00 5,0 -0,8 0,3 7,4 10,7 11 6 23 13 W 1017,7 60 0 0,0
18.01.2019 03:00:00 5,7 -0,4 -3,1 7,6 10,7 16 9 21 11 WNW 1018,1 60 0 0,0
18.01.2019 02:00:00 5,9 -1,1 -3,0 7,8 10,7 9 5 14 7 WNW 1017,9 60 0 0,0
18.01.2019 01:00:00 5,2 -0,2 -1,6 7,9 10,7 0 0 19 10 N 1018,1 60 0 0,0
18.01.2019 00:00:00 5,2 -1,9 1,1 8,0 10,7 9 5 22 12 NNW 1018,2 60 0 0,0
17.01.2019 23:00:00 8,2 -0,8 2,6 8,1 10,7 16 9 40 22 WNW 1017,9 60 0 0,0
17.01.2019 22:00:00 7,7 1,1 3,3 8,2 10,7 13 7 27 14 W 1017,4 60 0 0,0
17.01.2019 21:00:00 8,0 1,4 5,3 8,3 10,7 17 9 35 19 W 1017,0 60 0 0,0
17.01.2019 20:00:00 10,1 0,9 8,1 8,4 10,7 21 11 33 18 WNW 1016,6 60 0 0,0
17.01.2019 19:00:00 10,5 0,8 7,9 8,4 10,7 23 12 40 21 WNW 1016,2 60 0 0,0
17.01.2019 18:00:00 10,8 0,8 7,9 8,5 10,7 16 9 34 19 WNW 1015,6 60 0 0,0
17.01.2019 17:00:00 11,9 0,3 10,0 8,4 10,7 25 13 40 21 WNW 1015,4 60 0 0,0
17.01.2019 16:00:00 12,5 -0,1 11,9 8,3 10,7 27 15 41 22 WNW 1015,1 60 0 0,0
17.01.2019 15:00:00 13,3 0,6 13,6 8,1 10,7 29 16 45 25 WNW 1014,7 60 29 0,0
17.01.2019 14:00:00 14,1 2,6 13,2 7,9 10,7 28 15 44 24 WNW 1014,5 60 26 0,0
17.01.2019 13:00:00 12,4 5,1 12,8 7,8 10,7 27 15 37 20 W 1014,8 60 0 0,0
17.01.2019 12:00:00 12,4 5,3 12,5 7,7 10,7 23 13 33 18 W 1015,4 20 1 0,0
17.01.2019 11:00:00 10,3 5,7 10,3 7,5 10,7 6 3 8 5 WSW 1016,0 18 26 0,0
17.01.2019 10:00:00 8,4 6,7 6,5 7,5 10,7 4 2 5 3 SW 1015,7 10 11 0,0
17.01.2019 09:00:00 7,2 6,1 2,8 7,6 10,7 0 0 6 3 N 1015,3 8 18 0,0
17.01.2019 08:00:00 6,3 4,9 2,9 7,6 10,7 4 2 17 9 WSW 1015,1 9 0 0,0
17.01.2019 07:00:00 7,1 5,6 2,9 7,7 10,7 13 7 20 11 W 1015,2 12 0 0,0
17.01.2019 06:00:00 7,5 6,0 4,0 7,7 10,7 7 4 11 6 N 1014,8 10 0 0,0
17.01.2019 05:00:00 8,1 6,6 5,8 7,6 10,7 6 3 9 5 WNW 1014,9 12 0 0,0
17.01.2019 04:00:00 8,0 6,5 6,0 7,7 10,7 10 5 15 8 NNW 1015,3 13 0 0,0
17.01.2019 03:00:00 7,5 6,3 3,1 7,7 10,7 9 5 12 6 N 1015,8 12 0 0,0
17.01.2019 02:00:00 7,1 5,6 3,6 7,8 10,7 7 4 13 7 N 1015,9 13 0 0,0
17.01.2019 01:00:00 7,1 5,4 3,9 7,8 10,7 8 5 10 6 N 1016,5 11 0 0,0
17.01.2019 00:00:00 9,0 7,1 8,1 7,8 10,7 8 4 15 8 N 1017,0 13 0 0,0
16.01.2019 23:00:00 9,5 7,8 8,8 7,7 10,7 9 5 13 7 N 1017,0 12 0 0,0
16.01.2019 22:00:00 9,7 8,0 8,8 7,7 10,7 8 5 16 9 NNE 1017,0 14 0 0,0
16.01.2019 21:00:00 9,9 8,2 9,1 7,7 10,7 12 6 18 10 NE 1016,8 17 0 0,0
16.01.2019 20:00:00 10,2 7,6 9,4 7,6 10,7 10 6 20 11 NE 1016,9 20 0 0,0
16.01.2019 19:00:00 10,5 7,7 9,4 7,5 10,7 14 7 19 10 ENE 1016,7 19 0 0,0
16.01.2019 18:00:00 10,5 6,8 9,7 7,4 10,7 12 7 16 9 ENE 1016,9 41 0 0,0
16.01.2019 17:00:00 10,5 7,0 10,1 7,2 10,7 12 6 17 9 E 1017,1 11 0 0,0
16.01.2019 16:00:00 11,2 6,9 10,9 7,1 10,7 11 6 16 9 E 1017,2 19 0 0,0
16.01.2019 15:00:00 11,9 5,7 11,9 6,8 10,7 11 6 18 10 ENE 1017,4 17 24 0,0
16.01.2019 14:00:00 12,0 5,8 12,0 6,5 10,7 11 6 18 10 E 1017,9 19 32 0,0
16.01.2019 13:00:00 11,4 3,9 11,8 6,3 10,7 9 5 18 10 NE 1018,7 19 54 0,0
16.01.2019 12:00:00 9,5 3,2 9,5 6,1 10,7 10 6 21 11 NNE 1019,7 42 19 0,0
16.01.2019 11:00:00 7,6 1,6 6,4 6,0 10,7 13 7 22 12 NNE 1020,3 50 18 0,0
16.01.2019 10:00:00 6,1 0,2 4,8 6,0 10,7 12 7 23 12 NNE 1020,2 55 27 0,0
16.01.2019 09:00:00 3,8 -1,0 0,2 6,1 10,7 15 8 22 12 N 1019,9 50 22 0,0
16.01.2019 08:00:00 1,5 -2,5 0,2 6,1 10,7 13 7 23 12 N 1019,6 50 0 0,0
16.01.2019 07:00:00 1,8 -2,2 -0,3 6,2 10,7 14 8 22 12 N 1019,7 59 0 0,0
16.01.2019 06:00:00 1,8 -2,2 0,0 6,3 10,7 13 7 19 10 N 1019,8 59 0 0,0
16.01.2019 05:00:00 2,1 -1,7 -1,6 6,4 10,7 9 5 16 9 NNE 1020,0 55 0 0,0
16.01.2019 04:00:00 1,6 -2,2 -1,4 6,5 10,7 7 4 11 6 NNE 1020,2 51 0 0,0
16.01.2019 03:00:00 2,6 -1,8 -4,6 6,7 10,7 7 4 10 5 NE 1020,5 52 0 0,0
16.01.2019 02:00:00 2,8 -2,1 -4,1 6,8 10,7 6 3 16 9 NNE 1020,5 60 0 0,0
16.01.2019 01:00:00 3,3 -2,0 -2,1 6,9 10,7 11 6 23 12 N 1020,5 60 0 0,0
16.01.2019 00:00:00 3,5 -1,7 0,2 7,0 10,7 16 8 21 12 N 1020,9 60 0 0,0
15.01.2019 23:00:00 4,1 -0,7 -1,3 7,1 10,7 16 8 26 14 N 1021,2 60 0 0,0
15.01.2019 22:00:00 2,1 -2,1 -2,5 7,3 10,7 16 9 24 13 N 1021,2 60 0 0,0
15.01.2019 21:00:00 5,8 -0,3 -1,8 7,4 10,7 9 5 14 7 NNW 1021,1 60 0 0,0
15.01.2019 20:00:00 4,2 -1,0 0,3 7,5 10,7 10 6 16 9 NNE 1020,9 51 0 0,0
15.01.2019 19:00:00 6,7 -0,3 0,8 7,6 10,6 13 7 19 10 NNE 1020,6 60 0 0,0
15.01.2019 18:00:00 7,2 1,3 1,4 7,6 10,6 14 8 19 11 ENE 1020,1 60 8 0,0
15.01.2019 17:00:00 12,0 -0,5 8,0 7,6 10,7 5 3 21 11 ENE 1019,7 60 60 0,0
15.01.2019 16:00:00 14,2 -0,7 12,6 7,5 10,7 12 7 23 13 NNE 1019,6 60 60 0,0
15.01.2019 15:00:00 14,2 -0,3 15,0 7,3 10,6 15 8 23 12 NNE 1019,8 60 60 0,0
15.01.2019 14:00:00 13,8 -1,4 15,9 7,1 10,6 16 8 26 14 NNE 1020,5 60 60 0,0
15.01.2019 13:00:00 13,6 -1,6 16,1 6,9 10,6 18 10 30 16 N 1021,3 60 60 0,0
15.01.2019 12:00:00 12,4 -2,7 14,2 6,7 10,6 19 11 32 17 NNW 1022,2 60 60 0,0
15.01.2019 11:00:00 10,7 -1,4 10,3 6,7 10,6 19 10 28 15 NW 1022,7 20 60 0,0
15.01.2019 10:00:00 7,9 -0,8 6,7 6,7 10,6 13 7 16 9 NW 1022,4 20 60 0,0
15.01.2019 09:00:00 5,2 -1,5 -1,1 6,8 10,6 6 3 16 8 W 1022,3 59 21 0,0
15.01.2019 08:00:00 3,8 -2,4 -0,7 6,9 10,6 9 5 16 8 WNW 1021,7 60 0 0,0
15.01.2019 07:00:00 4,5 -2,2 0,3 7,0 10,6 14 8 20 11 W 1021,4 60 0 0,0
15.01.2019 06:00:00 4,9 -1,8 0,9 7,1 10,6 16 9 19 11 WNW 1021,1 60 0 0,0
15.01.2019 05:00:00 5,7 -1,7 2,2 7,1 10,6 14 7 23 13 NW 1021,4 60 0 0,0
15.01.2019 04:00:00 5,6 -1,6 1,5 7,3 10,6 12 7 20 11 WNW 1021,8 60 0 0,0
15.01.2019 03:00:00 6,0 -1,6 1,0 7,4 10,6 13 7 17 9 WNW 1022,0 60 0 0,0
15.01.2019 02:00:00 5,5 -1,9 -0,4 7,5 10,6 11 6 16 9 W 1021,6 60 0 0,0
15.01.2019 01:00:00 6,9 -1,8 -0,1 7,7 10,6 9 5 14 7 WNW 1021,7 60 0 0,0
15.01.2019 00:00:00 7,7 -1,3 2,1 7,8 10,6 14 7 25 13 NNW 1021,7 60 0 0,0
14.01.2019 23:00:00 7,1 -1,6 3,1 7,9 10,6 18 10 23 12 NNW 1021,6 60 0 0,0
14.01.2019 22:00:00 8,5 -1,6 -0,9 8,1 10,6 11 6 18 10 NNW 1021,3 60 0 0,0
14.01.2019 21:00:00 8,1 -1,2 3,1 8,2 10,6 9 5 19 11 NW 1020,7 60 0 0,0
14.01.2019 20:00:00 9,8 -0,1 1,9 8,4 10,6 18 10 23 12 NNW 1019,8 14 0 0,0
14.01.2019 19:00:00 10,3 1,1 2,4 8,5 10,6 5 3 24 13 NNW 1019,5 60 0 0,0
14.01.2019 18:00:00 11,3 1,2 2,6 8,5 10,6 8 4 16 8 NW 1018,6 60 6 0,0
14.01.2019 17:00:00 12,6 2,4 10,7 8,5 10,6 16 8 32 18 N 1018,0 60 60 0,0
14.01.2019 16:00:00 15,1 2,6 13,8 8,4 10,6 13 7 46 25 N 1017,0 57 60 0,0
14.01.2019 15:00:00 16,3 0,0 16,3 8,2 10,6 34 19 53 28 NNW 1016,3 45 60 0,0
14.01.2019 14:00:00 16,1 0,2 17,5 8,1 10,6 31 17 52 28 NNW 1016,1 48 60 0,0
14.01.2019 13:00:00 15,9 1,2 17,5 7,9 10,6 31 17 55 30 NNW 1016,6 56 60 0,0
14.01.2019 12:00:00 15,5 1,6 16,6 7,8 10,6 40 22 63 34 NNW 1017,3 60 60 0,0
14.01.2019 11:00:00 14,7 1,9 14,1 7,7 10,6 32 17 53 29 NNW 1017,7 60 58 0,0
14.01.2019 10:00:00 13,8 4,4 13,0 7,7 10,6 23 12 44 24 NW 1017,1 60 58 0,0
14.01.2019 09:00:00 13,1 4,0 9,2 7,7 10,6 27 15 40 21 NW 1016,5 53 21 0,0
14.01.2019 08:00:00 12,3 4,3 8,9 7,7 10,6 22 12 44 24 NW 1016,1 60 0 0,0
14.01.2019 07:00:00 12,1 4,3 9,5 7,7 10,6 26 14 46 25 WNW 1015,4 60 0 0,0
14.01.2019 06:00:00 11,9 3,6 9,5 7,7 10,6 26 14 54 29 WNW 1015,2 60 0 0,0
14.01.2019 05:00:00 12,4 3,6 9,9 7,7 10,6 32 17 60 33 NW 1015,1 60 0 0,0
14.01.2019 04:00:00 12,5 3,2 10,6 7,6 10,6 42 23 67 36 NW 1015,4 60 0 0,0
14.01.2019 03:00:00 12,9 3,5 10,4 7,6 10,6 38 20 62 33 WNW 1015,4 60 0 0,0
14.01.2019 02:00:00 12,9 4,8 10,6 7,6 10,6 22 12 54 29 WNW 1015,7 60 0 0,0
14.01.2019 01:00:00 12,8 5,7 10,9 7,6 10,6 32 17 61 33 WNW 1016,1 60 0 0,0
14.01.2019 00:00:00 13,3 5,7 10,8 7,6 10,6 37 20 59 32 NW 1017,0 60 0 0,0
13.01.2019 23:00:00 13,3 5,0 10,6 7,6 10,6 27 15 46 25 WNW 1017,2 60 0 0,0
13.01.2019 22:00:00 12,9 5,3 10,7 7,5 10,6 27 15 58 32 W 1017,5 60 0 0,0
13.01.2019 21:00:00 13,1 5,0 10,8 7,5 10,6 30 16 58 31 WNW 1017,6 60 0 0,0
13.01.2019 20:00:00 12,9 4,8 9,8 7,5 10,6 37 20 58 31 WNW 1018,5 60 0 0,0
13.01.2019 19:00:00 12,1 5,0 9,4 7,5 10,6 21 12 39 21 W 1018,8 60 0 0,0
13.01.2019 18:00:00 12,6 5,0 9,8 7,5 10,6 27 15 38 21 WNW 1019,1 60 5 0,0
13.01.2019 17:00:00 13,5 5,1 11,8 7,3 10,6 31 17 56 30 WNW 1018,9 59 26 0,0
13.01.2019 16:00:00 14,9 4,6 14,2 7,2 10,6 39 21 64 35 WNW 1018,6 48 60 0,0
13.01.2019 15:00:00 15,0 4,1 15,1 7,0 10,6 36 19 60 33 WNW 1018,9 56 60 0,0
13.01.2019 14:00:00 14,6 4,0 14,3 6,8 10,6 37 20 62 34 NW 1019,7 55 58 0,0
13.01.2019 13:00:00 13,6 4,2 14,0 6,5 10,6 46 25 69 37 NW 1020,4 60 35 0,0
13.01.2019 12:00:00 13,2 4,1 13,1 6,4 10,6 41 22 67 36 WNW 1020,8 60 57 0,0
13.01.2019 11:00:00 12,4 3,9 9,9 6,3 10,6 33 18 58 31 WNW 1021,5 60 5 0,0
13.01.2019 10:00:00 10,6 3,4 8,4 6,2 10,6 31 17 44 24 W 1021,7 59 0 0,0
13.01.2019 09:00:00 10,8 2,9 8,5 6,2 10,7 33 18 56 31 WNW 1021,8 60 0 0,0
13.01.2019 08:00:00 10,3 2,6 8,4 6,1 10,6 37 20 64 35 WNW 1021,1 60 0 0,0
13.01.2019 07:00:00 10,3 2,4 8,0 6,1 10,7 43 23 70 38 WNW 1021,1 60 0 0,0
13.01.2019 06:00:00 9,8 1,9 7,6 6,0 10,7 49 27 70 38 WNW 1021,1 60 0 0,0
13.01.2019 05:00:00 9,4 1,3 7,2 6,0 10,7 36 20 59 32 WNW 1022,1 60 0 0,0
13.01.2019 04:00:00 9,4 1,1 6,0 6,0 10,7 29 16 43 23 WNW 1022,7 60 0 0,0
13.01.2019 03:00:00 8,8 1,0 6,4 6,0 10,7 27 14 59 32 WNW 1023,6 60 0 0,0
13.01.2019 02:00:00 9,2 0,9 6,6 5,9 10,7 34 18 54 29 NW 1023,7 60 0 0,0
13.01.2019 01:00:00 9,1 0,8 7,0 6,0 10,7 33 18 46 25 NW 1024,2 60 0 0,0
13.01.2019 00:00:00 9,1 0,5 6,5 6,0 10,7 27 15 43 23 NW 1024,6 60 0 0,0
12.01.2019 23:00:00 8,7 0,4 -0,7 6,1 10,8 26 14 38 20 WNW 1024,6 60 0 0,0
12.01.2019 22:00:00 5,1 -0,9 -0,8 6,1 10,7 10 6 17 9 NW 1025,1 59 0 0,0
12.01.2019 21:00:00 7,5 -1,2 0,7 6,2 10,7 11 6 18 10 NW 1025,3 60 0 0,0
12.01.2019 20:00:00 6,8 -1,9 1,3 6,3 10,7 17 9 21 11 NW 1025,3 60 0 0,0
12.01.2019 19:00:00 5,6 -2,3 1,3 6,3 10,7 14 7 18 10 N 1025,2 60 0 0,0
12.01.2019 18:00:00 9,1 -1,9 5,2 6,3 10,7 12 7 29 16 NW 1024,8 60 4 0,0
12.01.2019 17:00:00 11,3 -1,5 9,0 6,2 10,7 18 10 33 18 NW 1024,1 59 60 0,0
12.01.2019 16:00:00 13,4 -0,3 11,9 6,0 10,7 21 12 39 21 N 1024,0 58 60 0,0
12.01.2019 15:00:00 13,9 -0,2 14,4 5,8 10,7 25 13 39 21 N 1023,8 58 60 0,0
12.01.2019 14:00:00 14,2 0,1 15,5 5,5 10,8 23 12 37 20 NNW 1023,8 60 60 0,0
12.01.2019 13:00:00 13,3 0,6 16,2 5,3 10,8 22 12 31 17 W 1024,3 60 60 0,0
12.01.2019 12:00:00 12,2 0,3 14,6 5,0 10,7 16 9 32 17 WNW 1024,9 60 60 0,0

tt = Température de l'air
td = dewpoint
tt 5cm = Température de l'air 5cm
tt -20cm = Température de l'air -20cm
tt -100cm = Température de l'air -100cm
ff = Vitesse du vent
fx = gusts
dd = Direction du vent
ppp = reduced air pressure
vv = visibility
sd = Ensoleillement
rr = Quantités de précipitations

stations d'obs. à proximité